Location: Newark
(20.0000°S, 47.0000°E)
Time: 23:40:30
(UTC+00:00)

Envisat - Pass Details

Date: 22 June 2019
Orbit: 764 x 766 km, 98.1° (Epoch: 19 July)

Event Time Altitude Azimuth Distance (km) Brightness Sun altitude
Exits shadow 16:28:56 23° 203° (SSW) 1,610 4.7 -28.9°
Maximum altitude 16:31:32 38° 255° (WSW) 1,164 4.2 -29.5°
Drops below altitude 10° 16:36:11 10° 322° (NW) 2,295 6.1 -30.5°
Sets 16:38:37 0° 330° (NNW) 3,215 6.8 -31.1°
